Find OneWeb SL0696

NORAD ID: 56723 Int'l Des: 2023-068 Owner: ONEWEBN Country: UK Constellation: oneweb operational
LEOCIRCULARPOLARONEWEB_TYPE

リアルタイム位置

3D地球を読み込み中...

OneWeb SL0696について

説明を読み込み中...

次回通過

Passes for default location (London). Set your location on the main map for personalized predictions.

高度履歴

Loading altitude history...

軌道要素

1 56723U 23068P 26110.14092700 .00000011 00000-0 -38912-5 0 9996
2 56723 87.8943 270.8019 0002174 87.9518 272.1861 13.15547989141738
Epoch: Apr 20, 2026 • Age: 12 hours

現在のステータス

高度 1227.9 km
速度 7.24 km/s
衛星直下点 -64.56°S, 179.94°W
打ち上げ日 May 20, 2023
運用期間 2.9 years
タイプ internet

技術仕様

分類 Payload
質量 148.00 kg
乾燥質量 140.00 kg
総質量 148.00 kg
長さ 1.30 m
直径 1.00 m
スパン 5.00 m
形状 Trapezoid+2 pan
製造者 ONEWUS
バスタイプ ARROW
フェーズステータス In Orbit
所有者/国 ONEWEBN/UK

Most Searched